Weather History for Craig, CO

Change the Weather History Date:

Thursday, July 4, 2013

  Actual Average Record
Temperature  
Mean Temperature 72 °F 65 °F  
Max Temperature 92 °F 86 °F 96 °F (2001)
Min Temperature 51 °F 44 °F 34 °F (1997)
Degree Days  
Heating Degree Days 0 2  
Month to date heating degree days 0 8  
Since 1 June heating degree days 88 183  
Since 1 July heating degree days 0 8  
Cooling Degree Days 7 1  
Month to date cooling degree days 21 4  
Year to date cooling degree days 65 14  
Since 1 June cooling degree days 65 14  
Growing Degree Days 22 (Base 50)    
Moisture  
Dew Point 47 °F    
Average Humidity 48    
Maximum Humidity 80    
Minimum Humidity 16    
Precipitation  
Precipitation T in 0.04 in 0.27 in (2010)
Month to date precipitation 0.03 0.19  
Year to date precipitation 5.28 7.70  
Sea Level Pressure  
Sea Level Pressure 29.88 in    
Wind  
Wind Speed 4 mph (ENE)    
Max Wind Speed 15 mph    
Max Gust Speed 23 mph    
Visibility 10 miles    
Events Rain , Thunderstorm    
T = Trace of Precipitation, MM = Missing Value Source: NWS Daily Summary

Daily Weather History Graph

Daily Weather History Graph

Search for Another Location

Airport:

Trip Planner

Search our weather history database for the weather conditions in past years. The results will help you decide how hot, cold, wet, or windy it might be!

Date:

Astronomy

Jul. 04, 2013 Rise Set
Actual Time 5:45 AM MDT 8:43 PM MDT
Civil Twilight 5:12 AM MDT 9:16 PM MDT
Nautical Twilight 4:30 AM MDT 9:58 PM MDT
Astronomical Twilight 3:41 AM MDT 10:46 PM MDT
Moon 3:04 AM MDT (7/4) 5:50 PM MDT (7/4)
Length of Visible Light 16h 04m
Length of Day
14h 58m
Waning Crescent, 11% of the Moon is Illuminated
Jul 4
Waning Crescent
Jul 8
New
Jul 15
First Quarter
Jul 22
Full
Jul 29
Last Quarter

Hourly Weather History & Observations

Time (MDT) Temp. Dew Point Humidity Pressure Visibility Wind Dir Wind Speed Gust Speed Precip Events Conditions
12:53 AM 59.0 °F 51.1 °F 75% 29.94 in 10.0 mi East 3.5 mph - N/A   Clear
1:53 AM 57.9 °F 52.0 °F 81% 29.92 in 10.0 mi ESE 3.5 mph - N/A   Clear
2:53 AM 57.0 °F 48.9 °F 74% 29.94 in 10.0 mi East 4.6 mph - N/A   Clear
3:53 AM 55.9 °F 48.0 °F 75% 29.93 in 10.0 mi Calm Calm - N/A   Clear
4:53 AM 55.0 °F 46.9 °F 74% 29.91 in 10.0 mi Calm Calm - N/A   Clear
5:53 AM 53.1 °F 46.0 °F 77% 29.94 in 10.0 mi East 5.8 mph - N/A   Clear
6:53 AM 57.0 °F 46.0 °F 67% 30.16 in 10.0 mi ENE 10.4 mph - N/A   Clear
7:53 AM 62.1 °F 46.0 °F 56% 29.96 in 10.0 mi ENE 12.7 mph - N/A   Clear
8:53 AM 66.9 °F 48.0 °F 51% 29.95 in 10.0 mi ENE 10.4 mph - N/A   Clear
9:53 AM 72.0 °F 48.0 °F 43% 29.94 in 10.0 mi NE 4.6 mph - N/A   Clear
10:53 AM 75.0 °F 48.9 °F 40% 29.91 in 10.0 mi Variable 3.5 mph - N/A   Clear
11:53 AM 81.0 °F 43.0 °F 26% 29.89 in 10.0 mi West 4.6 mph - N/A   Clear
12:53 PM 82.9 °F 44.1 °F 25% 29.87 in 10.0 mi WSW 5.8 mph - N/A   Clear
1:53 PM 86.0 °F 44.1 °F 23% 29.84 in 10.0 mi Variable 5.8 mph - N/A   Clear
2:53 PM 88.0 °F 41.0 °F 19% 29.81 in 10.0 mi Variable 3.5 mph - N/A   Clear
3:53 PM 89.1 °F 37.9 °F 16% 29.79 in 10.0 mi NW 6.9 mph - N/A   Clear
4:53 PM 90.0 °F 37.9 °F 16% 29.76 in 10.0 mi NNW 8.1 mph - N/A   Clear
5:53 PM 84.9 °F 45.0 °F 25% 29.77 in 10.0 mi South 4.6 mph - N/A   Partly Cloudy
6:53 PM 81.0 °F 46.9 °F 30% 29.77 in 10.0 mi SSE 5.8 mph - N/A   Mostly Cloudy
7:19 PM 78.8 °F 44.6 °F 30% 30.02 in 10.0 mi NNE 5.8 mph 23.0 mph 0.00 in Rain , Thunderstorm Light Thunderstorms and Rain
7:53 PM 77.0 °F 53.1 °F 43% 29.78 in 10.0 mi Calm Calm - 0.00 in Thunderstorm Mostly Cloudy
8:01 PM 75.2 °F 55.4 °F 50% 30.02 in 10.0 mi Calm Calm - N/A   Partly Cloudy
8:53 PM 73.0 °F 48.9 °F 42% 29.80 in 10.0 mi Calm Calm - N/A   Mostly Cloudy
9:53 PM 70.0 °F 53.1 °F 55% 29.80 in 10.0 mi Calm Calm - 0.00 in Rain Light Rain
10:53 PM 66.9 °F 51.1 °F 57% 29.81 in 10.0 mi Calm Calm - 0.00 in   Mostly Cloudy
11:53 PM 62.1 °F 51.1 °F 67% 29.80 in 10.0 mi West 3.5 mph - N/A   Scattered Clouds